Simultaneous Nadir Overpasses (SNOs) Predictions

Prediction of SNOs between AQUA and METOP-C Satellite Orbit:

Table of predicted SNOs for the next 14.0 days since TLE Epoch: 3/22/2019
Index Date (AQUA) Time (AQUA) Lat,Lon (AQUA) SZA (AQUA ) Date (METOP-C) Time (METOP-C) Lat,Lon (METOP-C) SZA (METOP-C ) Distance(km) Time Diff (sec)
1 03/22/2019 23:33:18 -73.76, 1.14 107.02 03/22/2019 23:32:30 -73.75, 1.03 107.01 3.55 48
2 03/23/2019 00:22:47 73.86, 168.55 73.08 03/23/2019 00:23:09 73.83, 168.54 73.05 3.68 22
3 03/25/2019 19:07:35 -73.77, 67.55 108.12 03/25/2019 19:06:54 -73.77, 67.46 108.12 2.58 41
4 03/25/2019 19:57:04 73.87,-125.05 71.98 03/25/2019 19:57:33 73.84,-125.02 71.94 3.57 29
5 03/28/2019 14:41:51 -73.79, 133.94 109.21 03/28/2019 14:41:17 -73.78, 133.90 109.21 1.46 34
6 03/28/2019 15:31:19 73.84, -58.54 70.83 03/28/2019 15:31:56 73.86, -58.59 70.85 2.29 37
7 03/31/2019 10:16:08 -73.81,-159.69 110.29 03/31/2019 10:15:41 -73.79,-159.66 110.30 2.29 27
8 03/31/2019 11:05:36 73.86, 7.84 69.76 03/31/2019 11:06:20 73.87, 7.85 69.76 0.58 44
9 04/03/2019 05:00:44 73.06, 100.68 67.84 04/03/2019 04:59:39 73.05, 97.73 67.95 95.85 65
10 04/03/2019 05:50:24 -73.79, -93.21 111.40 04/03/2019 05:50:05 -73.81, -93.22 111.38 1.71 19
11 04/03/2019 06:39:53 73.89, 74.21 68.70 04/03/2019 06:40:44 73.88, 74.28 68.68 2.78 51




NCC Satellite Simultaneous Nadir Overpasses (SNOs) Prediction Service
